Location: Eurasberg
(48.3353°N, 11.0839°E)
Time: 19:17:32
(UTC+00:00)

Cosmos 1461 - Pass Details

Date: 18 January 2026
Orbit: 426 x 503 km, 65.0° (Epoch: 13 February)

Event Time Altitude Azimuth Distance (km) Brightness Sun altitude
Rises 06:07:05 0° 225° (SW) 2,591 6.0 -8.7°
Reaches altitude 10° 06:09:14 10° 229° (SW) 1,718 5.1 -8.4°
Maximum altitude 06:13:04 63° 311° (NW) 574 2.7 -7.8°
Drops below altitude 10° 06:16:56 10° 33° (NNE) 1,739 5.5 -7.2°
Sets 06:19:08 0° 37° (NE) 2,626 6.5 -6.8°
